Lancaster, CA

9:08 PM PST on December 10, 2016 (GMT -0800)
Sandberg

Weather History for KSDB - May, 2013

Change the Weather History Date:

Tuesday, May 21, 2013

  Actual Average Record
Temperature  
Mean Temperature 70 °F 59 °F  
Max Temperature 83 °F 69 °F 88 °F (2000)
Min Temperature 56 °F 50 °F 31 °F (1971)
Degree Days  
Heating Degree Days 0 7  
Month to date heating degree days 97 192  
Since 1 July heating degree days 2990 3967  
Cooling Degree Days 5 1  
Month to date cooling degree days 73 19  
Year to date cooling degree days 123 27  
Growing Degree Days 20 (Base 50)    
Moisture  
Dew Point 33 °F    
Average Humidity 28    
Maximum Humidity 43    
Minimum Humidity 12    
Precipitation  
Precipitation 0.00 in 0.00 in 0.08 in (2006)
Month to date precipitation 0.28 0.33  
Year to date precipitation 2.81 8.34  
Since 1 July precipitation 4.18  
Sea Level Pressure  
Sea Level Pressure 29.88 in    
Wind  
Wind Speed 13 mph (NW)    
Max Wind Speed 29 mph    
Max Gust Speed 37 mph    
Visibility 10 miles    
Events      
T = Trace of Precipitation, MM = Missing Value Source: NWS Daily Summary

Daily Weather History Graph

Daily Weather History Graph

Search for Another Location

Airport or City:

Trip Planner

Search our weather history database for the weather conditions in past years. The results will help you decide how hot, cold, wet, or windy it might be!

Date:

Astronomy

May. 21, 2013 Rise Set
Actual Time 5:47 AM PDT 7:55 PM PDT
Civil Twilight 5:19 AM PDT 8:24 PM PDT
Nautical Twilight 4:44 AM PDT 8:59 PM PDT
Astronomical Twilight 4:07 AM PDT 9:36 PM PDT
Moon 4:22 PM PDT (5/21) 3:09 AM PDT (5/21)
Length of Visible Light 15h 05m
Length of Day
14h 08m
Waxing Gibbous, 85% of the Moon is Illuminated
May 21
Waxing Gibbous
May 24
Full
May 31
Last Quarter
Jun 8
New
Jun 16
First Quarter

Hourly Weather History & Observations

Time (PDT) Temp. Dew Point Humidity Pressure Visibility Wind Dir Wind Speed Gust Speed Precip Events Conditions
12:48 AM 66.0 °F 27.0 °F 23% 29.93 in 10.0 mi NW 18.4 mph - N/A   Clear
1:48 AM 64.0 °F 30.9 °F 29% 29.92 in 10.0 mi North 11.5 mph - N/A   Clear
2:48 AM 64.0 °F 32.0 °F 30% 29.89 in 10.0 mi NNW 13.8 mph - N/A   Clear
3:48 AM - - N/A% - - North - - N/A   Unknown
4:48 AM 63.0 °F 35.1 °F 35% 29.88 in 10.0 mi NNW 16.1 mph - N/A   Clear
6:48 AM 64.0 °F 35.1 °F 34% 29.90 in 10.0 mi NNW 11.5 mph - N/A   Clear
7:48 AM 69.1 °F 32.0 °F 25% 29.91 in 10.0 mi North 10.4 mph - N/A   Clear
8:48 AM 72.0 °F 32.0 °F 23% 29.92 in 10.0 mi North 9.2 mph - N/A   Clear
9:48 AM 75.0 °F 30.0 °F 19% 29.91 in 10.0 mi Variable 5.8 mph 17.3 mph N/A   Clear
10:48 AM 78.1 °F 28.9 °F 17% 29.91 in 10.0 mi NNW 17.3 mph 21.9 mph N/A   Clear
11:48 AM 78.1 °F 28.0 °F 16% 29.91 in 10.0 mi NNW 18.4 mph 26.5 mph N/A   Clear
12:48 PM 79.0 °F 28.9 °F 16% 29.89 in 10.0 mi North 13.8 mph 23.0 mph N/A   Clear
1:48 PM 81.0 °F 30.0 °F 16% 29.88 in 10.0 mi Variable 4.6 mph - N/A   Clear
2:42 PM 80.6 °F 35.6 °F 20% 30.04 in 10.0 mi SSE 13.8 mph 21.9 mph N/A   Partly Cloudy
2:48 PM - - N/A% - - North - - N/A   Unknown
3:48 PM 81.0 °F 35.1 °F 19% 29.85 in 10.0 mi SSE 12.7 mph 18.4 mph N/A   Clear
4:48 PM 78.1 °F 35.1 °F 21% 29.84 in 10.0 mi Variable 5.8 mph - N/A   Clear
5:48 PM 77.0 °F 33.1 °F 20% 29.83 in 10.0 mi NW 5.8 mph - N/A   Clear
6:48 PM 72.0 °F 39.0 °F 30% 29.83 in 10.0 mi WSW 6.9 mph - N/A   Clear
7:48 PM 66.9 °F 35.1 °F 31% 29.83 in 10.0 mi WNW 6.9 mph - N/A   Clear
8:48 PM 66.0 °F 30.9 °F 27% 29.82 in 10.0 mi West 8.1 mph - N/A   Clear
9:48 PM 66.0 °F 25.0 °F 21% 29.82 in 10.0 mi NW 19.6 mph 25.3 mph N/A   Clear
10:48 PM 62.1 °F 39.9 °F 44% 29.81 in 10.0 mi NW 24.2 mph 28.8 mph N/A   Clear
11:48 PM 60.1 °F 35.1 °F 39% 29.81 in 10.0 mi NNW 16.1 mph - N/A   Clear